QPF
0.00 0.00 0.00 0.00 0.00 0.00 0.00 0.00 0.00 0.00 0.00 0.00 0.00 0.00 0.00 0.00 0.00 0.00 0.00 0.00 0.00 0.00 0.00 0.01 0.03 0.06 0.02 0.03 0.12 0.05 0.01 0.04 0.08 0.06 0.03 0.02 0.02 0.01 0.01 0.00 0.00 0.00 0.00 0.02 0.11 0.15 0.07 0.03 0.06
0.00 0.00 0.00 0.00 0.00 0.00 0.00 0.00 0.00 0.00 0.00 0.00 0.00 0.00 0.00 0.00 0.00 0.00 0.00 0.00 0.01 0.01 0.00 0.00 0.09 0.07 0.00 0.02 0.09 0.01 0.00 0.00 0.04 0.07 0.04 0.04 0.02 0.01 0.00 0.00 0.00 0.00 0.01 0.05 0.12 0.07 0.02 0.01 0.00
0.00 0.00 0.00 0.00 0.00 0.00 0.00 0.00 0.00 0.00 0.00 0.00 0.00 0.00 0.00 0.00 0.00 0.00 0.00 0.00 0.00 0.00 0.00 0.00 0.04 0.03 0.02 0.01 0.03 0.00 0.00 0.00 0.01 0.07 0.09 0.05 0.01 0.00 0.00 0.00 0.01 0.01 0.01 0.03 0.02 0.01 0.00 0.00 0.00
0.00 0.00 0.00 0.00 0.00 0.00 0.00 0.00 0.00 0.00 0.00 0.00 0.00 0.00 0.00 0.00 0.00 0.00 0.00 0.00 0.00 0.00 0.00 0.02 0.02 0.04 0.03 0.02 0.00 0.01 0.01 0.00 0.07 0.12 0.15 0.04 0.01 0.00 0.00 0.00 0.00 0.00 0.00 0.01 0.01 0.00 0.00 0.00 0.00
0.00 0.00 0.00 0.00 0.00 0.00 0.00 0.00 0.00 0.00 0.00 0.00 0.00 0.00 0.00 0.00 0.00 0.00 0.00 0.00 0.00 0.00 0.00 0.01 0.03 0.01 0.01 0.04 0.01 0.02 0.02 0.01 0.12 0.08 0.06 0.03 0.00 0.00 0.00 0.00 0.00 0.00 0.00 0.00 0.00 0.00 0.00 0.00 0.00
0.01 0.00 0.00 0.00 0.00 0.00 0.00 0.00 0.00 0.00 0.00 0.00 0.00 0.00 0.00 0.00 0.00 0.00 0.00 0.00 0.00 0.00 0.00 0.00 0.03 0.05 0.02 0.01 0.05 0.07 0.04 0.05 0.12 0.10 0.05 0.04 0.01 0.00 0.00 0.00 0.00 0.00 0.00 0.00 0.00 0.00 0.00 0.00 0.00
0.04 0.01 0.00 0.00 0.00 0.00 0.00 0.00 0.00 0.00 0.00 0.00 0.00 0.00 0.00 0.00 0.00 0.00 0.00 0.00 0.00 0.00 0.01 0.06 0.05 0.07 0.08 0.04 0.01 0.08 0.18 0.14 0.12 0.07 0.06 0.03 0.01 0.00 0.00 0.00 0.00 0.00 0.00 0.00 0.00 0.00 0.00 0.00 0.00
0.00 0.00 0.00 0.00 0.00 0.00 0.00 0.00 0.00 0.00 0.00 0.00 0.00 0.00 0.00 0.00 0.00 0.00 0.00 0.00 0.00 0.00 0.00 0.05 0.09 0.08 0.07 0.11 0.06 0.11 0.19 0.16 0.08 0.04 0.05 0.04 0.00 0.00 0.00 0.00 0.00 0.00 0.00 0.00 0.00 0.00 0.00 0.00 0.00
0.00 0.06 0.03 0.00 0.00 0.01 0.00 0.00 0.00 0.00 0.00 0.00 0.00 0.00 0.00 0.00 0.00 0.00 0.00 0.00 0.00 0.00 0.00 0.00 0.00 0.05 0.08 0.07 0.11 0.18 0.15 0.08 0.05 0.02 0.01 0.00 0.00 0.00 0.00 0.00 0.00 0.00 0.00 0.00 0.00 0.00 0.00 0.00 0.00
0.03 0.07 0.03 0.00 0.00 0.00 0.00 0.00 0.00 0.00 0.00 0.01 0.00 0.00 0.00 0.00 0.00 0.00 0.00 0.00 0.00 0.00 0.00 0.00 0.00 0.00 0.01 0.02 0.11 0.12 0.02 0.00 0.00 0.00 0.00 0.00 0.00 0.00 0.00 0.00 0.00 0.00 0.00 0.00 0.00 0.00 0.00 0.00 0.00
0.00 0.04 0.01 0.02 0.00 0.00 0.00 0.00 0.00 0.00 0.00 0.00 0.00 0.00 0.00 0.00 0.00 0.00 0.00 0.00 0.00 0.00 0.00 0.00 0.00 0.00 0.00 0.00 0.01 0.00 0.00 0.00 0.00 0.00 0.00 0.00 0.00 0.00 0.00 0.00 0.00 0.00 0.00 0.00 0.00 0.00 0.00 0.00 0.00
0.00 0.01 0.04 0.03 0.00 0.01 0.00 0.00 0.00 0.00 0.00 0.00 0.00 0.00 0.00 0.00 0.00 0.00 0.00 0.00 0.00 0.00 0.00 0.00 0.00 0.00 0.00 0.00 0.00 0.00 0.00 0.00 0.00 0.00 0.00 0.00 0.00 0.00 0.00 0.00 0.00 0.00 0.00 0.00 0.00 0.00 0.00 0.00 0.00
0.00 0.01 0.02 0.02 0.00 0.00 0.00 0.00 0.00 0.00 0.00 0.00 0.00 0.00 0.00 0.00 0.00 0.00 0.00 0.00 0.00 0.00 0.00 0.00 0.00 0.00 0.00 0.00 0.00 0.00 0.00 0.00 0.00 0.00 0.00 0.00 0.00 0.00 0.00 0.00 0.00 0.00 0.00 0.00 0.00 0.00 0.00 0.00 0.00
0.00 0.00 0.00 0.00 0.02 0.03 0.07 0.01 0.01 0.01 0.00 0.00 0.00 0.00 0.00 0.00 0.00 0.00 0.00 0.00 0.00 0.00 0.00 0.00 0.00 0.00 0.00 0.00 0.00 0.00 0.00 0.00 0.00 0.00 0.00 0.00 0.00 0.00 0.00 0.00 0.00 0.00 0.00 0.00 0.00 0.00 0.00 0.00 0.00
0.00 0.02 0.06 0.05 0.04 0.07 0.08 0.10 0.02 0.00 0.00 0.00 0.00 0.00 0.00 0.00 0.00 0.00 0.00 0.00 0.00 0.00 0.00 0.00 0.00 0.00 0.00 0.00 0.00 0.00 0.00 0.00 0.00 0.00 0.00 0.00 0.00 0.00 0.00 0.00 0.00 0.00 0.00 0.00 0.00 0.00 0.00 0.00 0.00
0.03 0.06 0.12 0.06 0.08 0.12 0.12 0.25 0.08 0.01 0.00 0.00 0.00 0.00 0.00 0.00 0.00 0.00 0.00 0.00 0.00 0.00 0.00 0.00 0.00 0.00 0.00 0.03 0.03 0.01 0.00 0.00 0.00 0.00 0.00 0.00 0.00 0.00 0.00 0.00 0.00 0.00 0.00 0.00 0.00 0.00 0.00 0.00 0.00
0.02 0.11 0.04 0.00 0.06 0.12 0.16 0.15 0.03 0.06 0.00 0.00 0.00 0.00 0.00 0.00 0.00 0.00 0.00 0.00 0.00 0.00 0.00 0.00 0.00 0.00 0.00 0.03 0.03 0.04 0.06 0.00 0.00 0.00 0.00 0.00 0.00 0.00 0.00 0.00 0.00 0.00 0.00 0.00 0.00 0.00 0.00 0.00 0.00
0.00 0.01 0.04 0.03 0.03 0.15 0.09 0.06 0.02 0.10 0.10 0.02 0.00 0.00 0.00 0.00 0.00 0.00 0.00 0.00 0.00 0.00 0.00 0.00 0.00 0.00 0.00 0.00 0.00 0.00 0.00 0.00 0.00 0.00 0.00 0.00 0.00 0.00 0.00 0.00 0.00 0.00 0.00 0.00 0.00 0.00 0.00 0.00 0.00
0.00 0.00 0.00 0.00 0.00 0.00 0.06 0.08 0.07 0.08 0.16 0.07 0.01 0.00 0.00 0.00 0.00 0.00 0.00 0.00 0.00 0.00 0.00 0.00 0.00 0.00 0.02 0.00 0.00 0.00 0.05 0.02 0.00 0.00 0.00 0.00 0.00 0.00 0.00 0.00 0.00 0.00 0.01 0.03 0.00 0.00 0.00 0.00 0.00
0.00 0.00 0.00 0.00 0.00 0.00 0.00 0.02 0.04 0.04 0.12 0.04 0.00 0.00 0.00 0.00 0.00 0.00 0.00 0.00 0.00 0.00 0.00 0.00 0.00 0.03 0.03 0.00 0.00 0.00 0.04 0.03 0.00 0.00 0.00 0.00 0.00 0.00 0.00 0.00 0.00 0.00 0.00 0.01 0.00 0.00 0.00 0.00 0.00
0.00 0.00 0.00 0.00 0.00 0.00 0.00 0.01 0.04 0.11 0.14 0.10 0.01 0.00 0.00 0.00 0.00 0.00 0.00 0.00 0.00 0.00 0.00 0.00 0.00 0.00 0.00 0.00 0.00 0.05 0.06 0.03 0.00 0.00 0.00 0.00 0.00 0.00 0.01 0.00 0.00 0.00 0.00 0.00 0.00 0.00 0.00 0.00 0.00
0.00 0.00 0.00 0.00 0.01 0.07 0.02 0.02 0.02 0.05 0.08 0.06 0.01 0.00 0.00 0.00 0.00 0.00 0.00 0.00 0.00 0.00 0.00 0.00 0.00 0.00 0.00 0.00 0.00 0.05 0.02 0.01 0.00 0.00 0.00 0.01 0.00 0.00 0.00 0.00 0.00 0.00 0.00 0.02 0.00 0.00 0.00 0.00 0.00
0.00 0.00 0.00 0.00 0.00 0.04 0.03 0.03 0.03 0.01 0.08 0.04 0.00 0.00 0.00 0.00 0.00 0.00 0.00 0.00 0.00 0.00 0.00 0.00 0.00 0.00 0.00 0.00 0.03 0.05 0.00 0.00 0.01 0.00 0.03 0.01 0.00 0.00 0.00 0.00 0.01 0.00 0.00 0.06 0.02 0.00 0.00 0.00 0.00
0.00 0.00 0.00 0.00 0.00 0.02 0.02 0.03 0.05 0.00 0.01 0.02 0.00 0.00 0.00 0.00 0.00 0.00 0.00 0.00 0.00 0.00 0.00 0.00 0.00 0.00 0.00 0.00 0.04 0.08 0.05 0.01 0.00 0.01 0.02 0.00 0.00 0.00 0.00 0.00 0.05 0.01 0.00 0.02 0.02 0.00 0.00 0.00 0.00
0.00 0.00 0.00 0.00 0.03 0.02 0.00 0.02 0.02 0.00 0.00 0.00 0.00 0.00 0.00 0.00 0.00 0.00 0.00 0.00 0.00 0.00 0.00 0.00 0.00 0.00 0.00 0.00 0.00 0.03 0.05 0.07 0.06 0.04 0.01 0.00 0.00 0.00 0.00 0.00 0.03 0.01 0.00 0.00 0.01 0.02 0.01 0.00 0.01
0.00 0.00 0.00 0.00 0.00 0.00 0.00 0.01 0.00 0.00 0.00 0.00 0.00 0.00 0.00 0.00 0.00 0.00 0.00 0.00 0.00 0.00 0.00 0.00 0.00 0.00 0.00 0.00 0.00 0.03 0.06 0.02 0.01 0.00 0.00 0.00 0.00 0.00 0.00 0.00 0.00 0.01 0.02 0.02 0.01 0.00 0.00 0.00 0.00
0.00 0.00 0.00 0.00 0.00 0.00 0.00 0.00 0.01 0.00 0.00 0.00 0.00 0.00 0.00 0.00 0.00 0.00 0.00 0.00 0.00 0.00 0.00 0.00 0.00 0.00 0.00 0.00 0.04 0.07 0.06 0.01 0.00 0.02 0.00 0.00 0.00 0.00 0.00 0.00 0.00 0.00 0.01 0.03 0.02 0.00 0.00 0.00 0.01
0.00 0.00 0.00 0.00 0.01 0.00 0.00 0.01 0.07 0.02 0.00 0.00 0.00 0.00 0.00 0.01 0.00 0.00 0.00 0.00 0.00 0.00 0.00 0.00 0.00 0.00 0.00 0.00 0.00 0.00 0.01 0.01 0.00 0.01 0.00 0.00 0.00 0.00 0.00 0.00 0.00 0.00 0.00 0.00 0.01 0.00 0.00 0.00 0.01
0.00 0.00 0.00 0.00 0.00 0.00 0.01 0.04 0.02 0.01 0.00 0.00 0.00 0.00 0.00 0.00 0.00 0.00 0.00 0.00 0.00 0.00 0.00 0.00 0.00 0.00 0.00 0.00 0.00 0.00 0.00 0.00 0.00 0.00 0.02 0.08 0.05 0.03 0.02 0.03 0.02 0.01 0.01 0.00 0.03 0.01 0.00 0.00 0.01
0.00 0.00 0.00 0.00 0.00 0.00 0.00 0.01 0.00 0.02 0.02 0.03 0.00 0.00 0.00 0.00 0.00 0.00 0.00 0.00 0.00 0.00 0.00 0.00 0.00 0.00 0.00 0.00 0.00 0.00 0.00 0.00 0.00 0.00 0.07 0.06 0.04 0.03 0.10 0.08 0.04 0.03 0.04 0.05 0.04 0.03 0.00 0.00 0.00
MSLP
1010.97 1010.40 1010.15 1009.64 1008.30 1005.76 1005.97 1006.51 1006.66 1007.06 1007.66 1008.28 1009.11 1009.11 1010.06 1010.83 1010.79 1012.32 1014.02 1014.21 1014.64 1015.18 1015.99 1016.62 1017.05 1016.86 1016.96 1017.07 1017.12 1017.19 1017.29 1017.33 1017.24 1017.42 1017.43 1017.39 1017.40 1017.39 1017.36 1017.53 1017.64 1017.69 1017.81 1017.87 1018.14 1018.14 1018.04 1018.21 1018.08
1009.90 1010.17 1009.89 1008.52 1006.59 1004.86 1005.77 1006.48 1006.62 1007.36 1008.13 1008.97 1009.56 1009.74 1010.11 1011.43 1012.21 1013.33 1014.02 1014.56 1014.64 1015.07 1015.88 1016.98 1017.42 1017.27 1017.28 1017.35 1017.41 1017.54 1017.63 1017.65 1017.36 1017.67 1017.83 1017.72 1017.73 1017.69 1017.71 1017.79 1018.01 1018.02 1018.16 1018.43 1018.33 1018.26 1018.35 1018.36 1018.27
1010.53 1010.22 1008.66 1007.35 1005.97 1005.04 1005.63 1006.49 1007.17 1008.00 1008.77 1009.07 1009.81 1010.41 1010.97 1012.37 1013.05 1013.32 1014.23 1014.66 1014.75 1015.35 1016.25 1017.26 1017.59 1017.60 1017.52 1017.68 1017.63 1017.59 1017.79 1018.00 1017.70 1018.12 1018.17 1018.04 1017.97 1018.12 1018.18 1018.18 1018.29 1018.42 1018.49 1018.59 1018.47 1018.46 1018.59 1018.47 1018.39
1009.81 1009.87 1008.47 1006.83 1005.94 1006.45 1006.27 1006.88 1007.69 1008.31 1009.15 1009.72 1010.06 1011.05 1012.50 1013.07 1013.22 1013.90 1014.59 1014.54 1015.02 1015.31 1016.36 1017.56 1017.67 1017.77 1017.69 1017.84 1017.88 1018.06 1018.03 1018.12 1018.35 1018.56 1018.37 1018.33 1018.33 1018.36 1018.48 1018.55 1018.60 1018.71 1018.69 1018.81 1018.61 1018.66 1018.60 1018.55 1018.56
1009.95 1009.05 1007.20 1006.49 1006.55 1006.72 1007.00 1007.47 1007.93 1008.20 1009.12 1009.83 1010.20 1011.34 1012.50 1013.60 1013.98 1014.49 1014.69 1014.54 1014.61 1015.28 1016.53 1017.49 1017.78 1017.91 1018.14 1018.11 1018.24 1018.37 1018.45 1018.59 1018.76 1018.83 1018.53 1018.56 1018.57 1018.67 1018.74 1018.82 1018.88 1018.82 1018.91 1018.88 1018.82 1018.80 1018.77 1018.62 1018.77
1008.71 1008.91 1007.06 1006.06 1006.86 1007.30 1007.65 1008.13 1008.25 1008.82 1009.60 1010.22 1010.58 1011.59 1013.31 1014.11 1014.22 1014.55 1014.73 1014.66 1014.69 1015.20 1016.05 1017.45 1018.14 1018.40 1018.44 1018.47 1018.57 1018.74 1018.89 1019.11 1019.16 1018.95 1018.91 1018.90 1018.92 1019.04 1019.05 1019.02 1019.01 1019.03 1019.00 1018.94 1018.94 1018.93 1018.96 1018.91 1018.92
1008.41 1008.66 1006.84 1006.32 1007.09 1007.57 1007.97 1008.46 1008.48 1009.06 1009.64 1010.08 1010.62 1011.35 1013.51 1013.92 1014.42 1014.85 1014.94 1015.04 1014.94 1015.45 1016.38 1017.08 1018.08 1018.54 1018.69 1018.94 1019.12 1019.45 1019.53 1019.58 1019.13 1019.22 1019.16 1019.06 1019.18 1019.26 1019.31 1019.29 1019.17 1019.06 1018.97 1018.99 1018.96 1019.09 1019.05 1019.03 1018.95
1008.53 1008.75 1007.52 1006.88 1007.19 1007.78 1008.35 1008.86 1009.32 1009.43 1010.13 1010.80 1010.85 1011.45 1012.81 1013.95 1014.57 1014.81 1015.06 1015.20 1015.35 1015.87 1016.45 1017.72 1018.25 1018.36 1018.90 1019.34 1019.70 1020.04 1019.77 1019.40 1019.28 1019.39 1019.43 1019.34 1019.46 1019.49 1019.40 1019.31 1019.17 1019.06 1018.95 1018.97 1019.08 1019.12 1019.09 1018.96 1018.96
1008.82 1008.65 1008.12 1007.45 1007.38 1008.32 1008.81 1009.13 1009.82 1010.05 1010.33 1010.70 1011.15 1011.32 1012.73 1014.17 1014.56 1014.77 1015.19 1015.50 1015.89 1016.08 1016.28 1016.49 1017.38 1018.62 1018.80 1019.32 1019.66 1019.73 1019.45 1019.40 1019.46 1019.48 1019.57 1019.20 1018.59 1018.65 1018.83 1019.37 1019.27 1019.14 1019.03 1019.08 1019.02 1019.01 1018.97 1018.78 1018.64
1008.26 1008.89 1008.82 1009.09 1008.44 1008.57 1008.95 1009.17 1009.77 1009.97 1010.44 1011.17 1011.24 1012.23 1013.47 1014.30 1014.61 1014.65 1015.05 1015.41 1015.66 1016.31 1016.35 1016.51 1016.51 1017.43 1017.89 1018.91 1019.77 1019.75 1019.11 1019.22 1019.35 1019.28 1019.35 1018.92 1018.98 1019.02 1018.83 1019.18 1019.30 1019.19 1019.12 1019.06 1019.02 1018.98 1018.78 1018.41 1017.22
1008.99 1010.05 1010.42 1010.09 1009.92 1009.22 1009.19 1009.46 1009.75 1009.76 1009.84 1010.72 1011.42 1012.31 1013.40 1014.15 1014.59 1014.68 1015.05 1015.52 1015.82 1016.27 1016.50 1017.18 1017.50 1017.93 1017.61 1018.30 1018.61 1018.53 1018.62 1018.76 1019.24 1019.31 1019.02 1019.09 1018.65 1018.66 1018.33 1018.18 1018.23 1018.23 1018.62 1017.64 1018.01 1017.92 1017.45 1017.63 1017.38
1009.80 1011.35 1011.44 1011.20 1010.93 1010.38 1009.82 1009.94 1009.85 1009.95 1010.06 1010.61 1011.71 1012.62 1013.27 1013.83 1014.23 1014.51 1014.94 1015.54 1016.27 1016.61 1016.99 1017.39 1017.68 1018.20 1018.23 1018.28 1018.16 1018.51 1018.61 1018.66 1018.55 1019.00 1019.08 1018.93 1018.38 1018.65 1018.40 1018.21 1018.35 1018.13 1018.02 1018.05 1017.91 1017.78 1018.09 1017.85 1017.98
1010.23 1011.60 1012.13 1012.44 1012.03 1011.44 1011.43 1010.96 1010.45 1010.61 1010.55 1011.17 1012.05 1012.98 1013.28 1013.62 1014.13 1014.52 1014.97 1015.60 1016.26 1016.68 1017.16 1017.60 1017.85 1018.19 1018.53 1018.37 1018.45 1018.51 1018.51 1018.32 1018.72 1018.83 1019.25 1018.91 1018.47 1018.56 1018.45 1018.68 1018.20 1018.18 1018.00 1018.06 1018.09 1018.19 1018.17 1018.07 1017.90
1010.18 1011.15 1012.24 1012.30 1012.94 1012.68 1012.12 1012.14 1011.50 1011.42 1011.29 1011.82 1012.38 1012.88 1013.22 1013.54 1013.99 1014.63 1015.06 1015.56 1016.10 1016.57 1017.06 1017.53 1017.85 1018.27 1018.55 1018.57 1018.71 1018.64 1018.45 1018.66 1018.65 1018.72 1019.10 1019.16 1018.74 1018.79 1018.45 1018.42 1018.14 1018.25 1018.29 1018.27 1018.25 1018.41 1018.08 1017.96 1017.78
1009.57 1010.62 1011.59 1012.61 1013.36 1013.86 1013.54 1012.99 1012.42 1012.11 1011.72 1011.99 1012.27 1012.73 1013.12 1013.55 1014.12 1014.66 1015.17 1015.58 1016.02 1016.53 1017.12 1017.55 1017.84 1018.17 1018.60 1018.68 1018.49 1018.22 1018.46 1018.41 1018.59 1018.78 1019.34 1019.40 1019.18 1019.15 1018.97 1018.57 1018.35 1018.41 1018.50 1018.44 1018.49 1018.53 1018.34 1017.89 1017.74
1008.99 1009.93 1011.02 1012.85 1013.33 1014.81 1014.52 1013.89 1013.82 1013.24 1012.26 1012.11 1012.25 1012.57 1013.18 1013.60 1014.02 1014.45 1015.06 1015.45 1015.93 1016.23 1017.18 1017.60 1017.62 1018.09 1018.48 1018.72 1018.74 1018.28 1018.67 1018.68 1018.85 1018.93 1018.92 1019.30 1019.51 1019.49 1018.89 1018.50 1018.61 1018.81 1018.46 1018.18 1018.14 1018.13 1018.07 1018.01 1017.95
1007.89 1008.96 1010.46 1012.82 1014.25 1014.75 1015.08 1014.72 1014.85 1014.45 1013.80 1012.47 1012.38 1012.42 1012.83 1013.36 1013.83 1014.32 1014.86 1015.29 1015.87 1016.47 1017.14 1017.50 1017.92 1018.20 1018.54 1019.03 1019.01 1019.25 1019.40 1018.78 1018.93 1018.91 1018.93 1019.37 1019.37 1019.57 1019.24 1018.87 1018.97 1018.79 1018.38 1018.27 1018.05 1018.20 1018.27 1018.14 1018.00
1006.44 1007.77 1009.82 1011.26 1013.62 1014.77 1014.93 1015.13 1014.94 1014.44 1014.58 1013.22 1012.39 1012.30 1012.50 1012.85 1013.35 1013.99 1014.60 1015.06 1015.56 1016.33 1017.11 1017.52 1017.89 1018.29 1018.65 1018.62 1018.93 1018.72 1018.76 1018.72 1018.95 1018.98 1019.05 1019.41 1019.37 1019.58 1019.42 1019.15 1019.28 1018.74 1018.20 1018.43 1018.60 1018.69 1018.61 1018.49 1018.37
1006.71 1007.39 1008.80 1010.75 1012.51 1013.29 1014.29 1014.57 1015.18 1015.20 1014.89 1014.07 1012.82 1012.08 1012.12 1012.30 1012.90 1013.51 1014.29 1014.94 1015.44 1016.02 1016.84 1017.52 1017.90 1018.40 1018.52 1018.54 1018.42 1018.42 1018.69 1018.83 1018.96 1019.02 1019.46 1019.58 1019.67 1019.64 1019.58 1019.04 1019.15 1018.90 1018.94 1019.22 1019.18 1018.90 1018.89 1018.43 1018.53
1006.59 1007.00 1008.19 1010.41 1011.75 1012.25 1013.18 1013.97 1014.60 1014.91 1014.61 1014.32 1013.31 1012.01 1011.79 1012.21 1012.51 1013.33 1014.00 1014.58 1015.27 1015.91 1016.55 1017.34 1017.87 1018.45 1018.62 1018.45 1018.33 1018.28 1018.81 1018.84 1018.75 1019.02 1019.41 1019.62 1019.75 1019.74 1019.42 1019.64 1019.20 1019.49 1018.93 1019.36 1019.36 1019.34 1018.65 1018.66 1019.01
1006.28 1006.31 1007.62 1008.86 1010.73 1011.72 1012.24 1012.47 1013.63 1014.19 1014.25 1014.18 1013.71 1012.53 1011.88 1012.46 1012.07 1012.91 1013.63 1014.17 1014.89 1015.59 1016.29 1017.00 1017.76 1018.27 1018.45 1018.41 1018.70 1019.11 1019.16 1019.19 1019.09 1019.21 1019.26 1019.46 1019.77 1019.62 1019.69 1019.79 1019.63 1019.43 1019.06 1019.01 1019.54 1019.47 1019.42 1018.72 1019.14
1005.49 1006.89 1007.44 1008.47 1009.26 1009.97 1011.17 1011.09 1011.83 1012.78 1013.10 1013.39 1013.38 1013.01 1011.82 1011.58 1011.76 1012.06 1012.88 1013.68 1014.37 1015.16 1015.97 1016.71 1017.50 1018.09 1018.43 1018.72 1018.43 1018.62 1018.46 1018.24 1018.39 1018.83 1018.94 1019.08 1019.62 1019.69 1019.67 1019.71 1019.71 1019.69 1019.24 1019.58 1019.57 1019.69 1019.63 1019.66 1019.06
1005.49 1006.56 1006.84 1007.75 1007.88 1008.65 1009.57 1010.69 1010.29 1011.27 1012.08 1011.93 1012.50 1012.33 1011.70 1011.01 1011.23 1011.42 1012.07 1012.94 1013.83 1014.73 1015.43 1016.25 1017.19 1017.85 1018.02 1018.50 1018.54 1018.67 1018.45 1018.30 1018.68 1018.72 1019.21 1019.33 1019.55 1019.66 1019.60 1019.71 1019.77 1019.73 1019.22 1019.72 1019.87 1019.96 1020.05 1019.70 1019.49
1006.28 1006.40 1006.47 1006.58 1006.50 1006.47 1007.44 1009.01 1008.95 1009.78 1009.58 1011.09 1011.60 1011.72 1011.29 1010.57 1010.50 1010.86 1011.64 1012.36 1013.35 1014.30 1015.03 1015.74 1016.76 1017.52 1017.95 1018.34 1018.74 1018.74 1018.27 1018.29 1018.41 1018.85 1018.89 1018.79 1018.88 1019.00 1019.49 1019.58 1019.83 1019.95 1019.97 1019.83 1019.66 1019.96 1020.08 1020.12 1019.92
1006.00 1005.09 1004.41 1004.53 1004.99 1005.14 1006.62 1007.73 1007.40 1008.30 1008.83 1008.92 1009.42 1010.15 1010.87 1010.40 1010.19 1010.64 1011.19 1012.25 1012.94 1013.78 1014.67 1015.34 1016.37 1017.12 1017.60 1017.99 1018.37 1018.64 1018.71 1018.90 1018.97 1019.08 1018.88 1018.25 1018.37 1018.57 1019.02 1019.49 1019.77 1019.68 1019.86 1019.91 1019.87 1019.91 1019.95 1019.92 1019.83
1005.20 1004.13 1003.57 1003.72 1003.72 1004.87 1006.10 1006.09 1006.95 1007.86 1007.62 1007.69 1008.73 1009.60 1010.35 1010.56 1010.28 1010.38 1011.02 1012.10 1013.21 1013.48 1014.37 1015.01 1015.92 1016.69 1017.20 1017.58 1017.99 1018.43 1018.71 1018.49 1018.64 1018.60 1018.06 1018.35 1018.15 1018.29 1018.67 1019.18 1019.32 1019.50 1019.66 1019.69 1019.79 1019.58 1019.48 1019.64 1019.64
1004.40 1004.59 1003.95 1004.12 1003.88 1004.37 1004.22 1005.87 1007.16 1007.40 1007.70 1007.87 1008.27 1009.08 1010.02 1010.19 1010.16 1010.38 1010.79 1011.51 1012.71 1013.18 1013.99 1014.65 1015.44 1016.29 1016.82 1017.14 1017.67 1018.03 1018.49 1018.56 1018.16 1018.21 1018.65 1018.40 1018.55 1018.33 1018.73 1018.94 1019.11 1019.27 1019.42 1019.60 1019.67 1019.55 1019.68 1019.72 1019.69
1004.75 1004.43 1004.53 1004.26 1004.09 1003.79 1004.29 1005.77 1007.23 1007.98 1008.34 1008.26 1007.95 1008.72 1009.47 1010.72 1010.90 1010.49 1010.82 1011.32 1011.83 1012.78 1013.67 1014.42 1015.01 1015.69 1016.25 1016.74 1017.23 1017.57 1017.96 1018.27 1018.34 1018.52 1018.66 1018.47 1018.45 1018.57 1018.68 1018.84 1018.95 1019.13 1019.22 1019.43 1019.63 1019.38 1019.44 1019.77 1019.54
1004.99 1004.68 1004.62 1005.03 1004.08 1004.25 1004.83 1006.59 1008.60 1009.41 1009.20 1008.68 1008.48 1008.34 1009.82 1010.42 1010.56 1010.49 1010.94 1011.45 1011.80 1012.74 1013.29 1014.08 1014.67 1015.16 1015.77 1016.32 1016.71 1017.20 1017.45 1017.69 1017.99 1018.05 1018.28 1018.61 1018.77 1018.70 1018.57 1018.84 1018.88 1018.86 1019.01 1019.12 1019.44 1019.57 1019.53 1019.55 1019.57
1004.33 1004.31 1004.21 1004.29 1005.17 1005.06 1006.07 1008.10 1009.78 1010.15 1010.40 1009.91 1008.71 1008.60 1009.39 1010.96 1011.11 1010.92 1011.64 1011.73 1012.44 1013.20 1013.72 1014.05 1014.54 1014.71 1015.09 1015.69 1016.29 1016.72 1017.17 1017.43 1017.52 1017.79 1017.99 1018.29 1018.42 1018.34 1018.59 1018.62 1018.84 1018.94 1018.95 1019.09 1019.26 1019.38 1019.00 1019.11 1019.29
Thickness
5792 5796 5798 5791 5777 5796 5770 5771 5787 5775 5771 5782 5779 5773 5760 5759 5754 5733 5755 5756 5752 5746 5739 5734 5730 5731 5732 5732 5734 5738 5741 5743 5745 5747 5747 5749 5754 5756 5758 5757 5756 5757 5756 5756 5755 5754 5756 5754 5756
5801 5799 5795 5788 5783 5780 5772 5785 5777 5780 5781 5781 5776 5772 5765 5747 5759 5751 5750 5753 5752 5748 5740 5730 5726 5729 5729 5731 5730 5734 5738 5740 5745 5745 5745 5749 5752 5755 5756 5755 5753 5755 5755 5753 5755 5755 5755 5755 5757
5797 5799 5789 5784 5787 5778 5773 5785 5782 5782 5782 5777 5767 5773 5763 5744 5755 5756 5757 5754 5752 5747 5739 5728 5727 5727 5727 5727 5729 5733 5736 5737 5740 5740 5743 5747 5751 5751 5751 5752 5753 5753 5754 5754 5756 5757 5755 5757 5757
5798 5791 5795 5784 5777 5782 5786 5788 5786 5779 5778 5777 5773 5752 5757 5762 5758 5759 5757 5756 5751 5749 5739 5729 5728 5727 5728 5728 5730 5731 5735 5737 5736 5736 5741 5745 5746 5748 5749 5751 5753 5753 5755 5755 5758 5758 5758 5759 5760
5795 5789 5784 5780 5776 5787 5794 5794 5791 5780 5775 5770 5773 5750 5748 5756 5760 5757 5756 5758 5756 5751 5740 5732 5729 5729 5728 5730 5729 5731 5731 5733 5733 5736 5740 5743 5745 5746 5749 5751 5753 5755 5754 5757 5758 5758 5758 5761 5761
5783 5782 5777 5777 5774 5783 5789 5791 5788 5779 5774 5769 5765 5755 5742 5756 5755 5756 5757 5758 5758 5754 5745 5733 5727 5727 5726 5729 5728 5728 5729 5729 5732 5736 5739 5742 5744 5745 5747 5751 5754 5755 5756 5757 5759 5759 5760 5762 5762
5777 5764 5783 5788 5775 5774 5781 5794 5783 5778 5773 5768 5775 5752 5746 5751 5756 5757 5756 5756 5758 5754 5745 5738 5729 5726 5726 5725 5724 5722 5724 5728 5732 5736 5740 5742 5744 5746 5747 5750 5753 5756 5757 5759 5761 5761 5762 5764 5765
5788 5769 5779 5787 5774 5768 5785 5785 5786 5779 5767 5779 5778 5751 5743 5752 5756 5758 5756 5756 5756 5753 5747 5735 5729 5728 5726 5723 5720 5717 5720 5727 5732 5737 5739 5742 5743 5745 5748 5751 5754 5756 5760 5762 5763 5764 5766 5768 5768
5796 5767 5764 5780 5780 5773 5787 5777 5784 5787 5773 5775 5773 5771 5765 5758 5757 5755 5751 5750 5751 5751 5749 5746 5739 5729 5727 5724 5720 5722 5724 5731 5735 5738 5740 5745 5750 5752 5753 5753 5756 5760 5762 5764 5767 5768 5769 5772 5774
5786 5763 5772 5781 5789 5781 5785 5783 5779 5775 5769 5762 5769 5769 5763 5757 5754 5752 5749 5747 5749 5747 5750 5749 5748 5740 5737 5730 5722 5722 5729 5732 5736 5740 5743 5748 5750 5752 5756 5757 5760 5762 5765 5767 5768 5769 5773 5778 5784
5781 5752 5767 5776 5781 5790 5786 5782 5787 5776 5768 5770 5762 5762 5760 5756 5753 5752 5751 5751 5750 5751 5752 5747 5744 5740 5742 5737 5733 5735 5738 5739 5741 5743 5748 5750 5755 5757 5762 5766 5768 5770 5770 5777 5776 5780 5784 5783 5784
5762 5755 5759 5769 5776 5778 5781 5785 5779 5780 5778 5784 5775 5768 5763 5757 5756 5755 5753 5752 5749 5749 5749 5748 5745 5741 5741 5741 5743 5741 5743 5746 5750 5749 5751 5754 5760 5760 5764 5768 5769 5772 5773 5775 5780 5782 5780 5782 5780
5759 5752 5753 5756 5763 5772 5773 5771 5775 5774 5785 5783 5775 5766 5762 5761 5759 5759 5759 5757 5753 5750 5749 5748 5747 5745 5743 5745 5746 5747 5749 5754 5753 5754 5752 5757 5761 5763 5766 5767 5772 5773 5775 5776 5778 5778 5780 5781 5783
5767 5764 5755 5763 5754 5757 5762 5760 5771 5773 5782 5773 5769 5764 5764 5763 5762 5758 5757 5756 5755 5754 5752 5751 5749 5748 5746 5747 5748 5750 5754 5755 5756 5757 5756 5757 5761 5763 5768 5770 5774 5774 5775 5777 5778 5777 5781 5783 5786
5776 5759 5760 5756 5747 5740 5754 5747 5753 5771 5778 5769 5767 5767 5766 5764 5764 5759 5759 5757 5758 5757 5755 5753 5752 5751 5748 5749 5752 5756 5756 5758 5758 5757 5755 5757 5760 5764 5765 5770 5772 5773 5774 5777 5777 5778 5781 5786 5787
5764 5765 5743 5745 5751 5733 5741 5727 5741 5763 5771 5766 5768 5767 5763 5763 5764 5764 5763 5762 5761 5762 5756 5755 5757 5754 5752 5751 5752 5757 5755 5757 5758 5759 5760 5759 5759 5761 5768 5771 5770 5771 5777 5779 5781 5783 5784 5786 5787
5770 5744 5746 5732 5734 5732 5725 5721 5739 5745 5753 5765 5767 5767 5765 5763 5765 5766 5766 5766 5763 5762 5758 5757 5757 5756 5754 5751 5752 5752 5752 5759 5759 5761 5762 5759 5762 5762 5765 5770 5770 5772 5777 5780 5784 5784 5784 5785 5786
5760 5758 5750 5743 5734 5722 5720 5724 5738 5742 5739 5759 5768 5768 5766 5766 5766 5769 5769 5769 5767 5765 5762 5760 5759 5757 5755 5756 5755 5757 5759 5761 5760 5761 5762 5760 5763 5764 5766 5769 5769 5773 5778 5779 5779 5780 5783 5784 5784
5769 5764 5752 5747 5743 5736 5720 5720 5728 5732 5734 5743 5762 5769 5769 5769 5774 5774 5772 5771 5768 5767 5763 5760 5758 5757 5757 5758 5759 5759 5758 5761 5762 5762 5760 5761 5762 5764 5766 5771 5771 5773 5774 5773 5776 5780 5779 5783 5785
5766 5760 5751 5744 5743 5744 5734 5724 5728 5731 5734 5741 5755 5769 5771 5769 5772 5771 5771 5772 5769 5766 5764 5762 5760 5758 5759 5762 5764 5764 5761 5763 5765 5763 5761 5761 5762 5764 5767 5767 5771 5769 5776 5774 5776 5777 5781 5782 5781
5761 5762 5750 5749 5741 5741 5737 5735 5729 5732 5736 5740 5751 5766 5772 5763 5770 5770 5769 5771 5771 5766 5765 5763 5761 5760 5762 5764 5762 5757 5758 5760 5761 5763 5765 5763 5762 5764 5766 5766 5768 5770 5775 5778 5776 5777 5776 5778 5779
5754 5762 5757 5746 5742 5727 5741 5722 5739 5738 5734 5738 5741 5752 5769 5773 5776 5778 5775 5772 5772 5770 5769 5766 5763 5762 5763 5762 5765 5762 5763 5764 5768 5766 5768 5767 5764 5765 5766 5766 5767 5769 5775 5773 5775 5775 5776 5775 5775
5758 5764 5759 5751 5751 5746 5740 5718 5740 5745 5722 5743 5747 5754 5767 5779 5779 5780 5780 5778 5778 5775 5772 5770 5765 5763 5766 5764 5764 5764 5765 5768 5768 5769 5765 5766 5765 5766 5768 5768 5768 5770 5774 5772 5772 5772 5771 5776 5775
5762 5756 5758 5760 5761 5745 5757 5734 5734 5736 5752 5739 5749 5752 5765 5778 5784 5784 5786 5785 5780 5779 5775 5773 5767 5763 5764 5764 5763 5763 5768 5768 5768 5766 5767 5771 5773 5773 5770 5770 5770 5770 5770 5773 5774 5772 5772 5772 5774
5754 5755 5746 5743 5735 5742 5763 5740 5755 5760 5763 5766 5763 5763 5763 5776 5783 5783 5784 5781 5781 5778 5775 5775 5768 5763 5764 5764 5764 5764 5765 5765 5764 5764 5768 5774 5775 5776 5775 5772 5771 5772 5771 5772 5772 5773 5773 5773 5774
5747 5765 5753 5724 5740 5738 5759 5744 5755 5766 5781 5785 5774 5767 5767 5768 5780 5784 5784 5780 5771 5779 5776 5775 5770 5765 5766 5766 5764 5764 5764 5769 5769 5771 5777 5776 5779 5779 5776 5773 5774 5773 5772 5773 5774 5777 5778 5777 5777
5752 5739 5776 5750 5765 5750 5771 5763 5765 5774 5772 5774 5773 5769 5763 5771 5778 5782 5785 5785 5777 5780 5777 5776 5773 5768 5768 5768 5766 5765 5764 5766 5771 5774 5771 5775 5776 5779 5777 5776 5775 5774 5774 5773 5773 5776 5775 5775 5776
5752 5770 5740 5753 5720 5732 5756 5750 5737 5747 5752 5764 5773 5770 5770 5760 5766 5778 5781 5783 5785 5782 5780 5778 5776 5771 5772 5770 5769 5768 5767 5767 5769 5770 5770 5774 5775 5775 5777 5777 5777 5776 5775 5774 5773 5776 5777 5774 5777
5740 5740 5749 5741 5761 5733 5734 5734 5745 5737 5750 5758 5766 5777 5764 5758 5767 5776 5778 5780 5783 5780 5781 5778 5775 5774 5772 5771 5771 5769 5769 5770 5770 5771 5771 5770 5770 5773 5776 5775 5776 5777 5777 5776 5773 5773 5774 5774 5774
5761 5751 5759 5735 5726 5749 5740 5727 5735 5737 5741 5751 5767 5773 5771 5753 5757 5769 5769 5776 5773 5772 5772 5774 5774 5775 5774 5774 5772 5771 5770 5770 5771 5771 5772 5772 5771 5773 5773 5774 5774 5775 5775 5774 5773 5772 5777 5775 5773